Dewpoint
35 36 37 37 37 37 38 38 39 39 41 40 40 39 38 38 38 39 39 40 41 42 46 56 62 64 65 65 65 64 61 60 59 58 56 55 56 55 55 54 53 55 58
36 37 37 37 38 37 38 39 39 40 41 42 42 41 40 40 39 40 39 40 41 42 42 47 55 61 63 65 65 64 62 61 59 58 56 53 53 53 54 54 54 54 54
36 37 37 37 38 38 39 39 39 40 41 42 43 44 43 42 41 40 40 40 41 42 44 44 48 56 62 62 64 64 63 61 59 59 56 52 51 51 53 54 54 54 55
37 37 37 37 37 38 40 40 40 40 41 42 43 43 43 43 43 42 42 41 41 42 44 45 46 47 54 59 62 62 63 62 60 57 58 57 53 50 49 52 54 54 55
37 37 38 38 39 40 40 40 41 41 42 43 44 44 44 45 45 44 42 41 41 42 43 46 47 47 50 54 60 61 61 63 61 60 57 56 57 56 52 50 50 54 55
37 37 38 39 40 41 41 42 42 43 43 45 46 46 45 46 46 45 43 42 41 41 42 43 46 49 51 53 57 61 61 61 61 61 60 57 56 55 55 54 54 52 52
37 38 38 38 40 40 41 42 42 42 43 43 44 45 47 48 47 45 44 42 42 41 41 42 43 47 51 55 59 60 60 60 60 59 58 59 58 57 56 55 54 53 54
38 38 38 39 39 40 42 42 43 43 43 43 44 46 47 49 47 46 45 44 43 43 42 42 43 44 48 53 58 60 60 60 59 59 59 59 59 58 57 56 55 53 54
38 38 38 38 39 40 40 42 43 43 43 44 44 45 47 47 46 46 46 45 44 43 43 43 43 43 45 49 53 57 58 59 59 59 59 59 59 58 57 57 56 55 53
38 39 37 36 37 38 39 41 42 43 43 44 45 45 47 46 46 46 46 45 45 44 43 43 42 43 45 48 50 52 55 55 56 57 57 58 58 58 57 57 57 57 55
38 37 34 34 36 36 36 38 41 41 42 43 46 46 46 48 47 46 46 46 45 44 44 43 43 43 43 45 49 52 53 54 54 55 55 56 57 57 57 58 57 57 57
37 35 33 33 33 34 35 36 39 41 41 42 45 49 50 49 45 44 44 45 45 45 44 44 43 43 44 45 45 45 46 47 48 50 53 54 55 55 56 56 56 55 57
36 33 32 32 33 33 33 35 38 40 41 43 45 48 50 50 49 46 43 43 43 44 44 44 44 44 44 44 44 45 45 45 46 48 49 50 53 54 55 55 55 55 56
35 33 31 31 32 33 33 34 37 39 40 43 44 45 46 47 48 49 49 49 47 45 45 44 44 45 45 46 47 47 47 47 48 48 49 50 51 52 54 55 55 55 55
34 32 31 31 32 32 32 33 36 38 40 41 42 42 44 45 45 45 46 47 47 47 48 48 48 48 49 48 47 48 48 48 48 49 49 51 52 53 53 54 54 54 54
33 31 31 31 31 31 32 31 33 36 38 39 41 41 42 43 44 44 44 44 44 44 45 44 45 44 45 45 45 46 46 47 48 48 49 50 52 52 52 53 53 52 54
33 31 30 31 31 31 32 29 31 35 37 37 38 40 41 42 42 43 43 43 43 43 43 43 43 43 44 44 45 46 47 47 48 48 48 48 49 50 48 47 45 45 45
33 31 30 31 32 31 32 30 29 32 34 35 36 38 40 41 41 41 41 41 41 41 41 41 42 43 44 44 45 46 46 45 45 45 46 46 46 47 46 44 42 41 42
32 30 31 32 32 31 31 30 27 28 31 33 34 34 36 39 40 39 39 39 39 39 39 39 40 41 42 43 43 43 42 42 41 42 42 43 43 45 44 42 40 39 39
33 31 32 33 32 31 31 30 27 27 27 31 32 33 34 36 37 38 38 38 37 37 37 36 36 38 40 42 42 41 40 39 39 39 40 41 41 42 42 40 39 37 37
34 32 33 32 32 32 32 30 28 26 27 29 30 31 32 32 34 35 36 35 34 34 33 33 33 34 35 39 40 41 39 38 37 37 37 38 38 38 39 39 37 36 36
33 33 33 33 33 33 32 31 29 29 29 27 26 28 30 30 30 32 33 34 33 31 30 28 28 29 31 35 37 38 37 36 34 33 33 32 33 33 33 33 34 33 31
33 33 33 33 33 34 33 31 31 30 29 27 25 24 28 29 29 30 30 31 31 30 29 27 24 26 27 28 34 36 35 34 32 32 31 30 30 31 30 29 28 27 26
33 33 33 33 33 33 33 33 32 31 29 28 26 24 24 28 28 29 30 29 29 29 29 28 24 25 26 28 29 33 33 32 31 31 30 29 28 28 27 26 25 25 26
33 33 33 33 33 33 33 33 33 32 30 29 27 26 24 26 26 28 27 28 30 30 28 29 27 24 23 29 30 32 31 29 28 25 24 23 23 23 24 24 23 23 23
33 33 33 33 33 33 33 33 33 33 31 30 29 27 25 25 26 26 28 31 31 33 33 31 30 28 29 30 29 31 31 30 27 23 22 22 22 22 22 22 22 22 22
Wind_Speed
10 12 13 14 15 13 17 17 18 19 16 14 13 13 14 14 14 16 18 17 16 16 15 14 14 15 15 17 18 18 16 16 12 11 14 15 17 18 18 16 17 18 19
18 19 17 15 15 17 19 18 17 17 17 14 13 11 13 13 14 13 17 16 16 17 16 16 15 14 16 17 17 16 14 14 14 13 7 8 10 18 18 16 17 20 16
17 20 22 21 17 18 19 19 19 19 18 18 16 14 11 12 12 14 14 17 17 17 17 17 17 15 13 18 18 19 19 16 13 21 10 6 10 4 11 22 21 19 18
14 13 17 19 20 20 20 20 20 19 17 17 16 17 19 20 16 16 14 17 17 17 17 17 17 17 15 17 16 17 19 21 17 7 18 15 3 8 7 7 12 16 19
14 17 18 17 19 19 20 20 20 20 19 18 18 17 18 18 18 16 17 17 17 16 16 16 16 17 15 17 17 16 18 15 18 16 9 18 15 5 4 8 7 7 16
17 17 17 16 15 15 17 18 19 19 18 16 18 17 20 20 19 17 17 16 16 16 16 15 16 16 15 16 17 17 18 18 20 17 20 16 9 18 16 13 15 13 12
17 17 17 21 23 24 23 20 19 19 18 19 17 18 20 22 22 20 18 16 15 15 17 15 16 15 15 16 15 16 19 18 18 18 19 13 17 15 13 19 20 18 10
14 14 17 18 19 19 18 19 21 21 19 18 19 16 19 17 16 16 15 16 15 15 14 16 16 17 16 16 15 15 15 15 17 18 18 19 16 16 17 18 15 15 14
12 14 16 14 15 15 17 18 21 20 18 17 16 17 18 14 15 18 15 15 14 13 14 15 16 15 16 15 15 16 16 16 16 17 17 18 16 14 15 15 17 18 17
16 14 11 12 14 16 18 19 20 20 19 17 14 13 14 12 14 12 14 15 14 13 14 14 13 13 12 13 14 15 15 17 16 15 16 15 14 15 14 16 16 15 20
12 8 10 13 13 15 17 20 19 20 20 19 15 13 15 12 10 11 14 14 12 12 14 14 14 14 12 11 10 11 11 10 11 12 14 16 15 15 15 15 18 20 18
9 9 10 12 15 17 18 19 19 18 19 18 15 12 13 9 9 11 11 9 11 10 11 11 11 11 11 9 9 11 10 10 11 13 12 15 14 17 17 18 19 20 18
11 11 11 14 15 15 18 18 18 18 18 17 15 14 12 12 10 10 10 8 8 9 9 9 10 10 10 10 11 12 13 12 14 15 15 17 15 16 15 17 18 20 20
10 10 11 13 13 12 14 16 17 17 18 16 15 15 16 15 15 13 12 9 6 7 7 8 8 9 9 9 10 11 12 14 15 17 17 18 18 19 17 17 19 17 18
10 10 10 11 12 14 14 15 17 16 16 16 16 16 15 14 14 16 14 13 12 10 9 7 5 5 4 3 6 8 11 13 15 15 16 17 18 20 20 17 18 16 17
11 9 7 9 11 12 15 15 15 15 14 12 12 12 14 14 14 13 13 13 12 11 10 10 9 8 6 9 11 10 11 11 11 15 15 14 13 16 19 18 13 7 12
11 8 6 6 7 8 9 12 13 12 12 12 13 12 11 11 11 10 11 11 12 11 12 12 11 9 10 14 13 11 10 10 9 8 7 7 7 3 7 13 13 13 13
10 8 7 6 4 4 5 8 10 10 11 11 12 12 12 12 11 10 10 9 9 10 9 10 11 10 10 15 15 10 4 3 4 4 2 0 2 1 2 8 10 13 14
11 9 8 6 4 4 5 6 8 8 8 10 12 13 14 13 11 11 11 10 10 10 10 9 12 12 12 15 13 9 7 10 11 12 12 10 8 5 7 8 12 12 13
9 10 9 7 7 7 5 5 7 7 8 7 8 8 9 10 11 11 10 8 7 9 9 11 13 14 14 17 14 11 8 11 10 14 15 20 16 15 13 10 9 11 8
12 10 9 12 12 7 5 8 8 10 8 7 7 6 6 6 6 6 5 6 7 7 9 9 11 14 16 16 18 15 10 8 10 11 12 14 18 18 18 17 13 8 11
12 12 13 15 13 10 9 12 12 10 7 6 6 6 5 5 5 4 4 4 5 5 7 8 9 12 13 15 15 14 14 12 12 11 11 12 15 15 15 14 13 12 10
16 13 16 17 15 13 13 15 17 8 8 8 9 7 6 5 5 5 5 4 3 3 3 4 4 6 7 8 10 10 12 12 10 8 8 10 11 14 13 14 15 13 11
18 16 14 18 20 15 17 20 13 8 9 11 11 8 7 6 4 4 4 4 4 4 4 3 2 0 2 4 4 5 6 8 9 9 10 10 11 12 10 10 12 11 10
16 13 17 20 23 16 18 17 17 14 15 14 12 11 9 9 8 7 7 7 7 7 7 8 7 6 4 2 2 5 5 6 8 7 5 4 5 6 7 8 9 9 9
15 15 17 18 22 17 19 17 17 18 17 16 15 14 12 11 11 11 10 8 9 7 7 7 7 6 4 4 2 5 6 9 7 3 3 2 3 3 3 2 3 5 5
Wind_Direction
322 324 328 330 332 327 327 323 319 310 309 304 298 286 269 264 262 263 262 260 258 259 257 263 267 252 232 221 223 219 214 222 207 220 246 248 245 243 236 234 228 227 229
338 331 332 332 327 314 311 307 301 300 295 286 274 265 270 269 265 262 255 251 252 252 252 247 257 264 256 240 220 220 223 221 195 221 237 252 249 246 238 233 233 233 227
327 327 328 324 320 315 310 303 295 290 285 279 278 271 268 269 264 257 254 247 246 249 249 249 247 252 257 252 250 218 217 227 213 208 202 211 226 240 222 231 231 230 226
324 311 314 316 314 310 303 294 288 284 282 272 269 266 268 271 268 262 247 243 244 248 248 246 246 246 245 252 249 250 236 220 224 221 226 231 256 207 278 243 239 232 231
312 310 306 297 299 307 301 295 288 282 276 267 260 261 264 264 272 266 254 246 243 243 246 250 251 249 245 244 244 244 235 249 228 226 215 232 232 269 191 274 298 253 238
317 304 291 289 301 310 308 305 302 297 288 276 265 262 255 261 263 262 252 249 240 242 244 249 251 249 247 244 240 238 240 237 243 247 235 225 216 227 237 236 239 267 271
303 304 321 340 325 316 313 312 307 299 294 288 275 277 270 271 257 254 249 245 240 239 246 249 256 253 246 246 236 234 238 237 238 240 247 242 239 236 228 247 249 240 249
299 321 321 305 297 301 309 320 319 313 297 286 283 284 277 267 254 255 247 241 236 232 233 245 251 255 251 246 240 241 237 229 233 231 229 235 233 235 226 231 230 251 252
306 296 288 290 307 315 327 327 317 316 310 294 287 283 291 260 246 245 238 233 229 238 241 247 255 259 258 253 244 242 244 237 233 232 229 228 235 225 228 226 218 241 260
274 273 290 309 317 324 324 325 326 320 319 313 285 284 300 279 260 266 258 249 246 243 249 250 252 264 266 263 251 249 241 244 241 240 239 236 231 223 225 222 227 223 239
277 306 334 338 331 337 336 329 329 329 327 324 314 296 291 284 263 263 262 258 256 250 250 251 257 261 274 270 255 252 248 243 252 250 245 248 238 240 235 232 238 233 227
311 332 344 346 349 345 337 334 334 331 330 325 319 306 291 279 269 274 276 268 265 261 252 253 257 257 257 267 253 256 258 256 259 261 259 258 250 245 237 239 243 242 230
324 331 347 356 354 347 344 338 340 340 341 341 343 346 2 359 330 300 288 279 270 270 264 251 249 250 250 256 256 253 260 260 261 263 260 258 254 255 243 234 238 247 247
313 320 342 353 348 353 344 339 348 350 352 2 10 11 10 7 7 9 13 4 334 300 292 272 262 261 260 255 260 265 268 269 266 260 258 259 254 248 244 242 240 239 245
310 314 338 339 344 356 350 351 354 355 355 5 15 10 6 11 15 18 14 14 17 10 8 12 15 11 349 11 324 295 275 266 269 269 260 255 252 252 249 245 244 237 244
294 301 325 331 345 351 351 352 356 352 352 4 16 12 10 12 16 19 17 22 22 17 18 16 12 13 354 335 323 300 283 282 279 277 282 276 260 266 262 247 238 230 242
279 281 298 307 326 337 340 344 346 347 356 2 6 6 9 17 17 21 25 25 23 23 26 17 11 7 349 340 330 304 271 262 264 273 288 287 308 281 149 114 101 78 67
258 252 257 267 276 299 319 328 341 354 357 4 8 8 8 11 13 19 23 22 23 27 25 20 16 15 5 358 351 347 18 40 27 19 48 268 316 306 142 115 92 70 57
244 231 225 243 263 293 307 320 328 338 348 357 2 2 5 2 6 16 13 16 18 24 25 21 20 18 15 17 12 11 44 66 56 55 54 51 43 61 135 123 110 91 80
228 227 223 235 244 261 262 288 305 314 318 329 334 339 353 356 358 2 10 15 22 28 27 30 21 18 16 21 28 35 42 53 50 48 43 47 49 50 54 78 92 96 83
232 227 220 233 243 241 238 268 279 282 287 302 316 328 338 336 335 342 9 14 25 34 35 37 28 27 20 23 35 40 43 55 61 56 49 44 48 49 49 55 57 65 73
243 234 236 242 246 235 229 257 264 269 266 276 279 282 291 310 325 328 338 1 12 17 16 14 18 21 17 18 26 48 61 63 65 51 44 43 49 53 52 55 55 59 65
251 243 238 248 250 238 229 251 260 263 258 268 279 284 292 303 325 325 327 324 347 341 340 1 9 13 21 29 23 52 64 67 73 68 64 54 53 55 58 58 56 56 64
263 255 248 250 258 243 237 240 254 250 246 259 267 273 277 287 289 275 254 240 234 232 234 241 250 326 52 57 70 91 90 91 90 88 81 77 65 61 61 52 45 43 49
273 255 247 248 254 249 247 241 239 230 239 246 255 258 253 249 254 252 248 241 242 231 230 229 215 206 203 161 107 137 134 129 127 112 91 76 67 64 59 56 51 44 43
272 262 254 251 258 250 252 246 233 222 229 242 245 243 242 242 239 241 248 245 249 253 260 234 214 224 219 192 137 136 137 150 140 104 134 126 104 92 80 74 70 49 42